Regional Weather Roundup
Issued by NWS

Home | Current Version | Previous Version | Graphics & Text | Print | Product List | Glossary On
Versions: 1 2 3 4 5 6 7 8 9 10 11 12 13 14 15 16 17 18 19 20 21 22 23 24 25 26 27 28 29 30 31 32 33 34 35 36 37 38 39 40 41 42 43 44 45 46 47 48 49 50
000
ASUS43 KLSX 251459
RWRMO

WEATHER SUMMARY FOR MISSOURI
NATIONAL WEATHER SERVICE SPRINGFIELD MO
900 AM CST SUN JAN 25 2015

NOTE: "FAIR" INDICATES FEW OR NO CLOUDS BELOW 12,000 FEET WITH NO
       SIGNIFICANT WEATHER AND/OR OBSTRUCTIONS TO VISIBILITY.
       CURRENT SKY AND/OR WEATHER CONDITIONS ARE NOT AVAILABLE FOR
       CHILLICOTHE AND FARMINGTON.

MOZ001>031-035>038-043-044-053-054-251600-
...NORTHERN AND WESTERN MISSOURI...

CITY           SKY/WX    TMP DP  RH WIND       PRES   REMARKS
KANSAS CTY INT CLOUDY    36  33  89 NW18G25   29.73R WCI  26
KANSAS C DTWN  CLOUDY    38  33  82 NW15G28   29.73R WCI  29
LEE`S SUMMIT   LGT SNOW  37  34  89 NW21G30   29.71R FOG     WCI  26
ST JOSEPH      LGT RAIN  36  33  89 NW17      29.76R WCI  26
CHILLICOTHE      N/A     39  35  86 NW13G24   29.66R
KIRKSVILLE     LGT RAIN  41  41 100 N7        29.59R FOG

$$
MOZ066>068-077>081-088>096-101>105-251600-
...SOUTHWEST MISSOURI...

CITY           SKY/WX    TMP DP  RH WIND       PRES   REMARKS
SPRINGFIELD    CLOUDY    46  35  65 NW13G23   29.67S
JOPLIN         CLOUDY    46  35  65 NW21G32   29.75R

$$
MOZ032>034-039>042-045>050-055>058-069>072-251600-
...CENTRAL MISSOURI...

CITY           SKY/WX    TMP DP  RH WIND       PRES   REMARKS
COLUMBIA       CLOUDY    43  39  86 W13       29.60R
JEFFERSON CITY CLOUDY    45  38  76 W16       29.61S
ROLLA          CLOUDY    45  40  82 SW9       29.59S
SEDALIA        CLOUDY    43  37  79 NW17G23   29.64R
OSAGE BEACH    CLOUDY    46  37  71 W8        29.63S

$$
MOZ051-052-059>065-251600-
...EAST CENTRAL MISSOURI...

CITY           SKY/WX    TMP DP  RH WIND       PRES   REMARKS
ST LOUIS INTL  CLOUDY    47  42  83 SW3       29.58S
SPIRIT OF STL  CLOUDY    45  42  89 SW7       29.58R
ST CHARLES     FOG       42  42 100 CALM      29.58S VSB 3/4

$$
MOZ072>076-082>087-097>100-106>115-251600-
...SOUTH CENTRAL AND SOUTHEAST MISSOURI...

CITY           SKY/WX    TMP DP  RH WIND       PRES   REMARKS
CAPE GIRARDEAU LGT RAIN  40  38  93 S8        29.65F
FARMINGTON     CLOUDY    45  34  65 MISG      29.62F
POPLAR BLUFF   RAIN      41  37  86 SW8       29.65F FOG
WEST PLAINS    LGT RAIN  43  40  89 W8        29.65S

$$


USA.gov is the U.S. government's official web portal to all federal, state and local government web resources and services.